CGCEF CYQG-CYQG

Flight info

Callsign CGCEF
Flight time 0h 14m
Altitude 1600
Route
Aircraft DA20

Departure

Time 2026-04-21 00:38
Airport Windsor International Airport (CYQG)

Arrival

Time 2026-04-21 00:53
Airport Windsor International Airport (CYQG)
Time Latitude Longitude Altitude Speed Heading
2026-04-21 00:37 42.27073 -82.96314 712 ft 91 kts 295°
2026-04-21 00:38 42.27362 -82.97113 970 ft 98 kts 295°
2026-04-21 00:38 42.27718 -82.97904 1266 ft 100 kts 310°
2026-04-21 00:38 42.28331 -82.98272 1583 ft 98 kts 358°
2026-04-21 00:38 42.29038 -82.98057 1687 ft 113 kts 32°
2026-04-21 00:39 42.29507 -82.97193 1649 ft 118 kts 77°
2026-04-21 00:39 42.29464 -82.96120 1708 ft 113 kts 111°
2026-04-21 00:39 42.29029 -82.95238 1664 ft 115 kts 134°
2026-04-21 00:39 42.28524 -82.94440 1611 ft 105 kts 133°
2026-04-21 00:40 42.28089 -82.93708 1589 ft 95 kts 129°
2026-04-21 00:40 42.27736 -82.92987 1540 ft 91 kts 122°
2026-04-21 00:40 42.27461 -82.92231 1551 ft 89 kts 118°
2026-04-21 00:40 42.27053 -82.91684 1556 ft 83 kts 161°
2026-04-21 00:41 42.26503 -82.91761 1534 ft 83 kts 206°
2026-04-21 00:41 42.25998 -82.92166 1390 ft 82 kts 210°
2026-04-21 00:41 42.25710 -82.92766 1193 ft 84 kts 259°
2026-04-21 00:41 42.25954 -82.93508 1076 ft 95 kts 305°
2026-04-21 00:42 42.26328 -82.94249 918 ft 95 kts 297°
2026-04-21 00:42 42.26628 -82.95029 741 ft 93 kts 293°
2026-04-21 00:42 42.26888 -82.95780 624 ft 72 kts 289°
2026-04-21 00:42 42.27080 -82.96341 633 ft 82 kts 301°
2026-04-21 00:43 42.27355 -82.97100 806 ft 96 kts 291°
2026-04-21 00:43 42.27642 -82.97926 1065 ft 99 kts 291°
2026-04-21 00:43 42.28064 -82.98640 1412 ft 97 kts 324°
2026-04-21 00:43 42.28723 -82.98840 1627 ft 107 kts
2026-04-21 00:44 42.29435 -82.98455 1675 ft 112 kts 31°
2026-04-21 00:44 42.29989 -82.97778 1755 ft 109 kts 69°
2026-04-21 00:44 42.29978 -82.96755 1705 ft 112 kts 120°
2026-04-21 00:45 42.28973 -82.95237 1512 ft 104 kts 134°
2026-04-21 00:45 42.28537 -82.94521 1526 ft 94 kts 128°
2026-04-21 00:45 42.28162 -82.93821 1559 ft 91 kts 127°
2026-04-21 00:45 42.27813 -82.93104 1597 ft 92 kts 126°
2026-04-21 00:46 42.27469 -82.92360 1599 ft 96 kts 125°
2026-04-21 00:46 42.27021 -82.91707 1583 ft 94 kts 154°
2026-04-21 00:46 42.26402 -82.91678 1542 ft 90 kts 197°
2026-04-21 00:46 42.25882 -82.92169 1442 ft 94 kts 233°
2026-04-21 00:47 42.25926 -82.93008 1339 ft 91 kts 291°
2026-04-21 00:47 42.26191 -82.93784 1108 ft 92 kts 291°
2026-04-21 00:47 42.26468 -82.94571 910 ft 93 kts 292°
2026-04-21 00:47 42.26732 -82.95343 671 ft 87 kts 295°
2026-04-21 00:48 42.26961 -82.96000 622 ft 84 kts 295°
2026-04-21 00:48 42.27250 -82.96769 833 ft 95 kts 292°
2026-04-21 00:48 42.27560 -82.97587 1062 ft 97 kts 294°
2026-04-21 00:48 42.27632 -82.98431 1347 ft 91 kts 238°
2026-04-21 00:49 42.27140 -82.98946 1598 ft 93 kts 204°
2026-04-21 00:49 42.26528 -82.99360 1615 ft 100 kts 198°
2026-04-21 00:49 42.25922 -82.99007 1583 ft 108 kts 119°
2026-04-21 00:49 42.25628 -82.98088 1612 ft 105 kts 116°
2026-04-21 00:50 42.25430 -82.97497 1556 ft 103 kts 118°
2026-04-21 00:50 42.25129 -82.96666 1576 ft 94 kts 118°
2026-04-21 00:50 42.24826 -82.95904 1624 ft 92 kts 118°
2026-04-21 00:50 42.24569 -82.95111 1671 ft 93 kts 118°
2026-04-21 00:51 42.24284 -82.94326 1706 ft 94 kts 121°
2026-04-21 00:51 42.24179 -82.93458 1685 ft 101 kts 68°
2026-04-21 00:51 42.24757 -82.92894 1581 ft 106 kts 24°
2026-04-21 00:51 42.25462 -82.92675 1496 ft 106 kts 354°
2026-04-21 00:52 42.25998 -82.93227 1266 ft 99 kts 294°
2026-04-21 00:52 42.26281 -82.94017 1044 ft 90 kts 295°
2026-04-21 00:52 42.26547 -82.94788 833 ft 91 kts 294°
2026-04-21 00:52 42.26799 -82.95519 629 ft 79 kts 294°
2026-04-21 00:53 42.26972 -82.96024 622 ft 33 kts 297°
2026-04-21 00:53 42.27000 -82.96201 627 ft 12 kts 217°
2026-04-21 00:53 42.26924 -82.96237 625 ft 11 kts 194°
2026-04-21 00:53 42.26845 -82.96267 624 ft 12 kts 197°
2026-04-21 00:54 42.26798 -82.96353 623 ft 14 kts 278°
2026-04-21 00:54 42.26757 -82.96451 622 ft 14 kts 185°
2026-04-21 00:54 42.26666 -82.96484 627 ft 13 kts 199°
2026-04-21 00:54 42.26581 -82.96522 623 ft 12 kts 204°
2026-04-21 00:55 42.26599 -82.96605 622 ft 9 kts 14°
2026-04-21 00:55 42.26602 -82.96604 622 ft 0 kts 17°